STARLINK-32737, 62444

Orbit data source: Space-Track

STARLINK-32737, 62444 is a payload satellite owned by SpaceX/Seattle (US) in LEO that was launched on Sun, 29 Dec 2024 UTC via an FALCON 9 launch vehicle from the Air Force Western Test Range (AFWTR). Payload-class satellites include a variety of spacecraft equipped with specific instruments for various scientific and technological missions. These include communications satellites like Starlink; space stations such as the ISS; scientific satellites like the Hubble; Earth observation satellites from companies like Planet Labs, Umbra, and HawkEye 360; GPS; miniature CubeSats for education and research; and military/defense satellites.

Loading next visibility...
Identifier
62444, 2024-251N
Orbit
LEO
Country
Flag of USUS
Related business
Manufacturer
SpaceX/Seattle
Mission
Operational Commercial Communications
Bus & Motor
STARLINK V2M, Unknown motor
Mass
730 kg wet, ~700 kg dry
Launch date (UTC)
2024-12-29 (1 year ago)
Launch vehicle
FALCON 9
Launch site
Air Force Western Test Range (AFWTR)
Object type
Payload
Rocket body
Debris
Shape & HBR
Box + 2 Pan, 17.7 m
Radar Cross Section
33.884 m², Large (>1 m²)

Expand to show TLE details & history
Last TLE update: 14 hours ago

TLE from 14 hours ago
0 STARLINK-32737
1 62444U 24251N   26171.31761441  .00080190  00000-0  26445-2 0  9999
2 62444  53.1550 216.3019 0014654  96.0014 264.2657 15.30662066 83696
Epoch: 2026-06-20T07:37Z
TLE epoch observation values (Epoch: 2026-06-20T07:37:21.885Z)
Latitude
-0.00003°
Longitude
-166.57328°
Altitude
475.753 km
Speed
7.629 km/s
True Right ascension
14h 25m 12s
True Declination
0° 00' 00"
Sunlit
Object was in full shadow at epoch
Visualization orbit readout
Latitude
Unknown
Longitude
Unknown
Altitude
Unknown
Speed
Unknown
Apparent Right ascension
Unknown
Apparent Declination
Unknown
Sunlit
N/A
Visualization observer readout
Local Sidereal Time
08:33:23
Azimuth
Unknown
Elevation
Unknown
Doppler factor
Unknown
Orbital elements
Apogee altitude
484.134 km
Perigee altitude
464.052 km
Semi-major axis
6,852.23 km
Eccentricity
0.00147
Inclination
53.155°
RAAN
216.3019°
Arg. of periapsis
96.0014°
True anomaly
264.09865°
Mean anomaly
264.2657°
Eccentric anomaly
264.18217°
Mean motion
3.82644 °/min
Orbital period
94.08 mins
BSTAR
0.0026445
Loading maneuver chart data...
Computing Atmospheric mass density...
Loading historical data...
Loading historical data...
Loading historical data...
Loading historical data...
Loading historical data...
Loading historical data...
Loading historical data...

Documentation

Showing up to 5 results
|